Home > Weather > Oral > Past weeks

Flag for Kazakhstan Past Weather in Oral, Kazakhstan — Yesterday and Last 2 Weeks

Now
66 °F

Sunny.


Feels Like: 66 °F
Forecast: 49 / 68 °F
Wind: 10 mph from Northeast

Location: Uralsk

Current Time: May 31, 2016 at 9:23:35 PM

Latest Report: May 31, 2016 at 8:00 PM


Visibility: 10 mi

Pressure: 29.92 "Hg

Humidity: 30%

Dew Point: 34 °F

Location of OralLocation

Past Weather in Oral — Graph

°F

Oral Temperature Yesterday

Maximum temperature yesterday: 88 °F (at 1:30 PM)
Minimum temperature yesterday: 63 °F (at 2:00 AM)
Average temperature yesterday: 75 °F

High & Low Weather Summary for the Past Weeks

 TemperatureHumidityPressure
High90 °F (May 28, 4:00 PM)100% (May 19, 7:00 AM)30.07 "Hg (May 19, 7:00 AM)
Low48 °F (May 17, 12:00 AM)19% (May 28, 4:30 PM)29.83 "Hg (May 30, 5:30 PM)
Average68 °F64%29.96 "Hg
* Reported May 16 8:00 PM — May 31 8:00 PM, Oral, Weather by CustomWeather, © 2016

Note: Actual official high and low records may vary slightly from our data, if they occured in-between our weather recording intervals... More about our weather records

Advertising

Oral Weather History for the Previous 24 Hours

Scroll right to see more
 ConditionsComfort  
Time TempWeatherWind HumidityBarometerVisibility
8:00 PM
Tue, May 31
66 °FSunny.10 mph30%29.92 "Hg10 mi
7:30 PM68 °FSunny.13 mph28%29.92 "Hg10 mi
7:00 PM68 °FSunny.13 mph24%29.92 "Hg10 mi
6:30 PM68 °FSunny.15 mph26%29.92 "Hg10 mi
6:00 PM70 °FSunny.15 mph27%29.92 "Hg10 mi
5:30 PM70 °FSunny.15 mph27%29.92 "Hg10 mi
5:00 PM70 °FSunny.15 mph29%29.95 "Hg10 mi
4:30 PM70 °FSunny.15 mph29%29.92 "Hg10 mi
4:00 PM70 °FSunny.17 mph27%29.92 "Hg10 mi
3:30 PM70 °FSunny.17 mph29%29.95 "Hg10 mi
3:00 PM70 °FSunny.17 mph27%29.95 "Hg10 mi
2:30 PM68 °FSunny.17 mph28%29.95 "Hg10 mi
2:00 PM68 °FSunny.17 mph33%29.95 "Hg10 mi
1:30 PM68 °FSunny.17 mph35%29.95 "Hg10 mi
1:00 PM68 °FSunny.17 mph35%29.95 "Hg10 mi
12:30 PM68 °FSunny.17 mph38%29.95 "Hg10 mi
12:00 PM68 °FSunny.17 mph40%29.92 "Hg10 mi
11:30 AM66 °FSunny.15 mph43%29.92 "Hg10 mi
11:00 AM64 °FSunny.17 mph43%29.92 "Hg10 mi
10:30 AM64 °FSunny.17 mph46%29.92 "Hg10 mi
10:00 AM64 °FSunny.22 mph46%29.92 "Hg10 mi
9:30 AM61 °FSunny.17 mph48%29.92 "Hg10 mi
9:00 AM63 °FSunny.17 mph49%29.92 "Hg10 mi
8:30 AM63 °FBroken clouds.17 mph56%29.89 "HgN/A
8:00 AM61 °FBroken clouds.17 mph55%29.89 "HgN/A
7:30 AM59 °FBroken clouds.13 mph59%29.89 "HgN/A
7:00 AM59 °FBroken clouds.13 mph72%29.89 "HgN/A
6:30 AM61 °FBroken clouds.8 mph68%29.89 "HgN/A
6:00 AM61 °FBroken clouds.10 mph68%29.89 "HgN/A
5:30 AM63 °FBroken clouds.8 mph64%29.86 "HgN/A
5:00 AM61 °FPassing clouds.8 mph72%29.86 "HgN/A
4:00 AM59 °FPassing clouds.10 mph82%29.83 "HgN/A
3:00 AM59 °FClear.6 mph82%29.86 "Hg10 mi
2:00 AM63 °FClear.6 mph77%29.86 "Hg10 mi
1:00 AM63 °FPassing clouds.6 mph77%29.86 "HgN/A
12:00 AM66 °FPassing clouds.6 mph68%29.86 "HgN/A
11:00 PM
Mon, May 30
68 °FPartly cloudy.6 mph69%29.86 "HgN/A
10:00 PM70 °FPartly cloudy.8 mph69%29.86 "HgN/A
9:00 PM73 °FPartly sunny.6 mph69%29.86 "HgN/A
Weather by CustomWeather, © 2016

See weather overviewHow to use our weather pages